Regional Weather Roundup
Issued by NWS

Home | Current Version | Previous Version | Text Only | Print | Product List | Glossary Off
Versions: 1 2 3 4 5 6 7 8 9 10 11 12 13 14 15 16 17 18 19 20 21 22 23 24 25 26 27 28 29 30 31 32 33 34 35 36 37 38 39 40 41 42 43 44 45 46 47 48 49 50

000
ASUS43 KMKX 280900
RWRWI

WISCONSIN REGIONAL WEATHER ROUNDUP
NATIONAL WEATHER SERVICE MILWAUKEE/SULLIVAN WI
300 AM CST TUE FEB 28 2017

NOTE: "FAIR" INDICATES FEW OR NO CLOUDS BELOW 12,000 FEET WITH NO
SIGNIFICANT WEATHER AND/OR OBSTRUCTIONS TO VISIBILITY.

WIZ001-002-006>008-014>016-023>028-281000-
NORTHWEST WISCONSIN

CITY           SKY/WX    TMP DP  RH WIND       PRES   REMARKS
SUPERIOR ARPT  CLOUDY    30  29  96 NE3       29.84S
ASHLAND        MOCLDY    26  24  92 CALM      29.82F
HAYWARD        CLOUDY    37  28  70 S6        29.79F WCI  32
SIREN          CLOUDY    36  27  71 CALM      29.78S
CUMBERLAND     CLOUDY    34  28  80 SE6       29.79F WCI  29
RICE LAKE      CLOUDY    36  29  77 SE8       29.81F WCI  29
CHETEK         CLOUDY    34  30  83 CALM      29.80F
LADYSMITH      CLOUDY    34  29  83 E6        29.84F WCI  29
EAU CLAIRE     NOT AVBL
MENOMONIE      CLOUDY    35  31  86 CALM      29.80F
NEW RICHMOND   CLOUDY    35  28  76 SE3       29.77F
OSCEOLA        MOCLDY    37  30  74 E5        29.80F WCI  34
$$

WIZ003>005-009-010-017-018-281000-
NORTH CENTRAL WISCONSIN

CITY           SKY/WX    TMP DP  RH WIND       PRES   REMARKS
MANITOWISH WTR CLOUDY    30  27  91 SE6       29.83F WCI  24
ARBOR VITAE    PTCLDY    34  30  85 SE6         N/A  WCI  29
WOODRUFF       PTCLDY    34  30  85 SE6         N/A  WCI  29
RHINELANDER    CLOUDY    32  28  85 SE5       29.84F WCI  27
EAGLE RIVER    CLOUDY    32  26  80 SE3       29.85F
LAND O LAKES   CLOUDY    33  28  82 S6        29.87F WCI  28
PHILLIPS       PTCLDY    34  30  83 S8        29.82F WCI  28
TOMAHAWK       PTCLDY    32  28  84 SE3       29.85F
MEDFORD        CLOUDY    34  29  82 SE5       29.83F WCI  30
MERRILL        NOT AVBL
$$

WIZ029-030-035-036-043>047-281000-
CENTRAL WISCONSIN

CITY           SKY/WX    TMP DP  RH WIND       PRES   REMARKS
WAUSAU         CLOUDY    32  28  85 E7        29.85F WCI  26
MOSINEE        CLOUDY    34  32  93 E6        29.87F WCI  29
MARSHFIELD     CLOUDY    37  30  75 SE7       29.82F WCI  32
STEVENS POINT  CLOUDY    35  30  83 SE6       29.87F WCI  30
WAUPACA        LGT RAIN  38  32  81 CALM      29.90F
WAUTOMA        LGT RAIN  36  34  92 NE3       29.87F FOG
WISC RAPIDS    CLOUDY    38  33  82 SE6       29.86F WCI  33
CAMP DOUGLAS   LGT RAIN  37  36  93 E5        29.83F WCI  34
$$

WIZ011>013-019>022-031-037>040-048>050-281000-
NORTHEAST WISCONSIN

CITY           SKY/WX    TMP DP  RH WIND       PRES   REMARKS
ANTIGO         CLOUDY    32  29  90 SE8       29.88F WCI  25
SHAWANO        CLOUDY    39  33  79 S3        29.91F
OCONTO         CLOUDY    36  32  88 SE7       29.93F WCI  30
STURGEON BAY   CLOUDY    39  35  86 SE13      29.94F WCI  31
GREEN BAY      CLOUDY    39  36  89 S9        29.92F WCI  33
MANITOWOC      NOT AVBL
APPLETON       LGT RAIN  37  32  81 S6        29.90F WCI  33
CLINTONVILLE   CLOUDY    34  32  93 CALM      29.90F
OSHKOSH        CLOUDY    38  35  89 SE7       29.88F WCI  33
$$

WIZ032>034-041-042-053>061-281000-
SOUTHWEST WISCONSIN

CITY           SKY/WX    TMP DP  RH WIND       PRES   REMARKS
LA CROSSE      CLOUDY    40  37  89 SE6       29.77F
SPARTA         RAIN      40  38  91 E10       29.84F WCI  33
VIROQUA        CLOUDY    37  37  99 NE6       29.82F WCI  32
BOSCOBEL       CLOUDY    43  39  86 N5        29.81F
PRAIRIE DU CHI CLOUDY    40  38  95 NW6       29.80F
PLATTEVILLE    CLOUDY    41  41  99 E12       29.81F
$$

WIZ056-057-062-063-064-067-068-281000-
SOUTH CENTRAL WISCONSIN

CITY           SKY/WX    TMP DP  RH WIND       PRES   REMARKS
REEDSBURG      LGT RAIN  37  37 100 E3        29.85F
BARABOO/DELLS  LGT RAIN  37  36  94 SE3       29.86F
LONE ROCK      LGT RAIN  41  38  89 E8        29.85F FOG
MINERAL POINT  CLOUDY    43  43 100 E9        29.82F
MADISON        CLOUDY    42  39  89 SE10      29.84F
MIDDLETON      CLOUDY    42  39  91 SE8       29.85F
WATERTOWN      DRIZZLE   41  41 100 E8        29.89F
MONROE         CLOUDY    43  41  93 SE9       29.84F
JANESVILLE     CLOUDY    45  45 100 SE8       29.87F
$$

WIZ051-052-058>065-066-070>072-281000-
SOUTHEAST WISCONSIN

CITY           SKY/WX    TMP DP  RH WIND       PRES   REMARKS
MILWAUKEE      RAIN      41  38  89 SE7       29.93F FOG
WAUKESHA       LGT RAIN  39  36  87 E9        29.93F WCI  33
MILWAUKEE/TIMM HVY RAIN  41  36  81 SE6       29.95S
RACINE         HVY RAIN  41  38  89 SE9       29.93F FOG
KENOSHA        LGT RAIN  43  40  89 SE10      29.89F FOG
FOND DU LAC    LGT RAIN  39  33  79 SE12      29.89F WCI  32
SHEBOYGAN      CLOUDY    38  35  89 S7        29.94F WCI  33
WEST BEND      RAIN      37  37 100 SE5       29.93F WCI  34
JUNEAU         LGT RAIN  39  37  92 E9        29.91F WCI  33
$$

LSZ147-162-281000-
LAKE SUPERIOR

STATION/POSITION TIME  TEMP    WIND        PRES    WAVE
                       AIR SEA DIR/SP/G            HT/PER
                 (UTC) (F)     (DEG/KT/KT) (MB)    (FT/S)
DEVILS ISLAND    0800   33      70/  7/  8 1012.0F
PORT WING        0830   27     150/  2/  2 1010.2F
SAXON HARBOR     0840   30     160/  1/  2 1009.8F
$$

LMZ867-665-643>646-281000-
LAKE MICHIGAN

STATION/POSITION TIME  TEMP    WIND        PRES    WAVE
                       AIR SEA DIR/SP/G            HT/PER
                 (UTC) (F)     (DEG/KT/KT) (MB)    (FT/S)
CHAMBERS ISLAND  0840   39     140/  7/ 12 1014.2F
NORTHPORT PIER   0840   37     150/  9/ 13 1014.9F
SISTER BAY       0805   38     150/ 10/ 13   N/A
ALGOMA LAKESHORE 0741             CALM       N/A
KEWAUNEE LAKESHO 0830   37     170/  7/  8 1014.5F
SHEBOYGAN LAKESH 0800   39     170/ 11/ 11 1015.3F
PORT WASHINGTON  0830   39     190/  3/  5 1015.6F
MILWAUKEE LAKESH 0830   39     150/  5/  8   N/A
KENOSHA   LAKESH 0800   39     160/ 13/ 17 1014.2
$$

TC  - TEMPERATURE IN CELSIUS
VSB - VISIBILITY IN STATUTE MILES
WCI - WIND CHILL INDEX
HX  - HEAT INDEX




USA.gov is the U.S. government's official web portal to all federal, state and local government web resources and services.